Weather Roundup
Issued by NWS Chicago, IL

Home | Current Version | Previous Version | Text Only | Print | Product List | Glossary Off
Versions: 1 2 3 4 5 6 7 8 9 10 11 12 13 14 15 16 17 18 19 20 21 22 23 24 25 26 27 28 29 30 31 32 33 34 35 36 37 38 39 40 41 42 43 44 45 46 47 48 49 50

000
NZUS59 KLOT 270803
HRRLOT

CHICAGO AREA WEATHER ROUNDUP
NATIONAL WEATHER SERVICE CHICAGO/ROMEOVILLE IL
300 AM CDT TUE SEP 27 2016

NOTE: "FAIR" INDICATES FEW OR NO CLOUDS BELOW 12,000 FEET WITH NO
SIGNIFICANT WEATHER AND/OR OBSTRUCTIONS TO VISIBILITY.

* THESE STATIONS ARE NOT UNDER NWS QUALITY CONTROL. THEY ALSO MAY NOT
  REPORT WEATHER SUCH AS PRECIPITATION OR FOG.

ILZ005-006-012>014-019>023-270900-
NORTHEAST ILLINOIS

CITY           SKY/WX    TMP DP  RH WIND       PRES   REMARKS
OHARE          CLEAR     55  39  54 W10       29.87F
MIDWAY         CLEAR     56  39  53 SW12      29.88F
AURORA         CLEAR     50  41  71 SW9       29.89F
LANSING*       CLEAR     48  43  83 SW7       29.90F
WAUKEGAN       CLEAR     53  39  59 SW7       29.83F
DUPAGE AIRPORT CLEAR     50  40  68 SW9       29.87F
WHEELING       CLEAR     56  38  50 SW7       29.87F
KANKAKEE*      CLEAR     48  42  81 SW7       29.94F
NORTHERLY ISL    N/A     58  38  47 S7          N/A
$$

WIZ051-052-058>065-066-070>072-270900-
SOUTHEAST WISCONSIN

CITY           SKY/WX    TMP DP  RH WIND       PRES   REMARKS
MILWAUKEE      CLEAR     55  38  52 SW12      29.80F
KENOSHA*       CLEAR     50  39  66 W12       29.83F
RACINE*        CLEAR     52  38  58 SW9       29.83F
WAUKESHA       CLEAR     50  36  57 SW9       29.81F
WEST BEND      CLEAR     50  37  62 SW9       29.78F
$$

INZ001>003-010>013-019-020-270900-
NORTHWEST INDIANA

CITY           SKY/WX    TMP DP  RH WIND       PRES   REMARKS
GARY*          CLEAR     56  41  57 SW5       29.90F
MICHIGAN CITY* NOT AVBL
RENSSELAER*    NOT AVBL
VALPARAISO     CLEAR     49  41  74 SW8       29.91F
$$

LMZ740>746-270900-
SOUTHERN LAKE MICHIGAN

STATION/POSITION TIME  SKY/WX   TEMP WIND        PRES    VSBY
                                AIR  DIR/SP/G
                 (UTC)          (F)  (DEG/KT/KT) (MB)    (MI)
HARRISON CRIB    0700            62  240/ 14/ 18   N/A
BURNHAM HARBOR   0800            58  200/  3/ 10   N/A
CALUMET HARBOR   0700            58  230/  7/ 13 1012.0F
BURNS HARBOR     0700            59  210/ 12/ 16 1012.9F
MICHIGAN CITY    0700            57  180/ 13/ 15   N/A
$$

ABBREVIATIONS USED IN REMARKS
   TC - TEMPERATURE IN CELSIUS
  WCI - WIND CHILL INDEX
   HX - HEAT INDEX
  VSB - VISIBILITY
$$




USA.gov is the U.S. government's official web portal to all federal, state and local government web resources and services.